Date,TemperatureHighF,TemperatureAvgF,TemperatureLowF,DewpointHighF,DewpointAvgF,DewpointLowF,HumidityHigh,HumidityAvg,HumidityLow,PressureMaxIn,PressureMinIn,WindSpeedMaxMPH,WindSpeedAvgMPH,GustSpeedMaxMPH,PrecipitationSumIn
2013-2-16,36.1,27.7,23.9,16.6,10.6,2.8,66,48,34,29.59,29.47,11,6,17,0.00
2013-2-17,37.9,27.9,21.6,11.3,3.0,-1.1,64,35,21,29.81,29.59,11,6,19,0.00
2013-2-18,55.4,35.3,16.9,23.3,16.6,8.5,74,49,24,29.89,29.71,9,3,12,0.00
2013-2-19,52.2,41.4,33.1,39.3,23.7,7.9,85,53,25,29.71,29.50,12,4,18,0.24
2013-2-20,49.5,37.3,27.7,14.3,8.4,-0.4,55,31,21,29.71,29.63,7,4,12,0.00
2013-2-21,64.6,40.9,23.9,35.3,19.0,10.1,84,46,18,29.78,29.60,6,2,10,0.40
2013-2-22,44.4,40.8,37.0,39.3,35.8,30.7,86,82,77,29.77,29.61,7,3,9,0.50
2013-2-23,54.3,46.8,41.7,47.6,42.3,37.8,88,84,76,29.64,29.43,3,1,4,0.21
2013-2-24,62.4,43.0,29.5,41.9,28.5,20.5,90,63,21,29.62,29.48,7,2,11,0.01
2013-2-25,53.2,39.8,28.0,37.5,28.9,21.3,83,67,38,29.67,29.48,7,2,9,0.00
2013-2-26,48.9,45.6,41.4,42.4,38.9,29.5,86,78,62,29.48,29.14,8,4,18,1.07
2013-2-27,55.0,43.8,36.9,34.9,29.6,24.5,78,58,33,29.39,29.27,10,4,18,0.01
2013-2-28,41.9,35.7,31.6,29.0,22.1,19.3,64,57,51,29.50,29.36,9,4,16,0.00
2013-3-1,43.5,35.7,31.5,27.6,23.8,21.3,71,62,50,29.50,29.44,7,3,12,0.00
2013-3-2,40.3,33.4,27.7,27.5,22.5,13.0,81,65,46,29.52,29.43,10,4,17,0.05
2013-3-3,39.6,29.0,24.1,15.6,10.6,7.0,56,46,32,29.58,29.48,9,6,15,0.00
2013-3-4,55.9,38.7,21.9,31.2,16.5,3.3,64,42,22,29.68,29.57,6,3,10,0.00
2013-3-5,52.7,42.9,33.4,46.1,34.9,23.8,85,74,52,29.64,29.26,11,3,17,0.72
2013-3-6,35.2,31.6,26.6,24.0,19.9,14.5,79,62,53,29.69,29.35,14,4,22,0.00
2013-3-7,57.2,37.6,25.9,30.4,23.5,17.8,76,59,30,29.81,29.67,6,3,10,0.00
2013-3-8,63.0,39.0,23.0,30.1,20.9,14.5,84,55,18,29.85,29.75,6,2,8,0.00
2013-3-9,66.6,44.2,24.8,30.2,24.2,17.7,78,50,22,29.87,29.76,6,2,12,0.00
2013-3-10,65.3,49.9,34.3,36.9,30.0,24.7,77,50,23,29.82,29.72,10,3,14,0.00
2013-3-11,56.1,52.0,49.1,48.7,45.2,36.7,86,78,49,29.73,29.41,9,5,16,0.93
2013-3-12,61.2,48.7,34.3,48.9,34.3,16.3,87,62,22,29.64,29.39,8,4,18,0.09
2013-3-13,49.3,37.1,27.7,28.7,22.8,14.2,81,59,30,29.76,29.62,12,4,19,0.00
2013-3-14,52.3,36.7,24.3,15.8,11.9,6.2,60,38,21,29.84,29.74,9,4,13,0.00
2013-3-15,68.5,40.7,28.8,40.6,25.8,6.0,74,56,22,29.77,29.56,6,2,11,0.00
2013-3-16,75.9,63.9,52.5,45.4,41.7,38.2,64,45,30,29.57,29.44,11,5,16,0.00
2013-3-17,72.0,59.6,44.6,46.1,42.6,37.7,79,55,33,29.59,29.50,9,3,13,0.00
2013-3-18,56.7,49.0,44.2,45.3,42.9,40.9,88,80,63,29.60,29.44,7,3,12,0.59
2013-3-19,60.1,48.1,35.2,42.9,28.6,11.2,90,54,21,29.67,29.47,15,4,24,0.00
2013-3-20,56.5,41.1,29.7,29.2,17.1,6.6,80,42,20,29.67,29.44,9,3,19,0.01
2013-3-21,41.7,32.6,23.4,28.0,8.0,-1.6,80,37,22,29.51,29.42,10,3,20,0.00
2013-3-22,48.6,35.2,22.3,29.9,18.0,8.5,66,51,29,29.60,29.50,4,1,6,0.00
2013-3-23,57.4,45.8,38.1,45.0,37.7,29.7,86,74,61,29.60,29.41,7,2,11,0.09
2013-3-24,55.0,46.5,41.4,47.1,41.1,31.4,88,82,65,29.49,29.12,9,3,17,0.78
2013-3-25,41.2,33.9,29.7,31.4,20.9,16.8,70,59,45,29.51,29.19,9,5,17,0.00
2013-3-26,39.6,33.2,27.9,23.7,18.5,15.7,69,55,43,29.75,29.50,11,6,16,0.00
2013-3-27,52.0,38.0,28.6,21.8,17.2,12.7,65,45,23,29.81,29.73,8,4,14,0.00
2013-3-28,57.4,39.1,22.6,24.0,17.9,13.5,76,48,20,29.85,29.76,10,3,18,0.00
2013-3-29,50.0,43.4,23.7,36.9,31.7,16.3,85,66,34,29.89,29.81,4,2,6,0.04
2013-3-30,66.4,50.2,39.4,43.7,37.8,34.2,87,66,33,29.81,29.63,6,2,9,0.09
2013-3-31,64.0,54.9,49.1,50.1,47.4,43.6,86,77,54,29.64,29.47,6,2,14,0.35
2013-4-1,65.3,54.3,41.4,48.3,39.5,32.3,88,61,32,29.62,29.47,10,3,18,0.01
2013-4-2,63.5,50.6,40.5,32.8,22.7,14.2,61,36,18,29.73,29.60,9,4,14,0.00
2013-4-3,61.9,50.5,39.0,29.6,25.0,20.9,64,39,22,29.79,29.69,7,3,9,0.00
2013-4-4,50.7,41.2,37.4,36.8,33.9,23.9,88,78,35,29.78,29.51,5,1,8,0.76
2013-4-5,64.4,49.0,39.4,41.7,36.1,24.8,89,66,23,29.68,29.51,8,3,15,0.00
2013-4-6,69.6,49.5,29.8,38.6,30.8,25.9,87,55,22,29.79,29.68,8,2,12,0.00
2013-4-7,70.2,56.8,41.0,44.3,38.4,31.8,74,52,36,29.79,29.70,8,3,13,0.00
2013-4-8,75.7,59.2,44.2,50.5,44.6,39.4,84,61,35,29.75,29.68,12,3,19,0.00
2013-4-9,83.1,63.5,44.8,54.5,48.2,40.6,86,61,35,29.81,29.72,8,2,12,0.00
2013-4-10,86.2,66.3,46.0,55.2,49.7,41.8,86,59,31,29.77,29.59,7,3,11,0.00
2013-4-11,78.4,67.6,59.9,61.1,53.5,49.4,84,62,42,29.60,29.33,8,4,12,1.26
2013-4-12,72.0,61.9,48.7,56.5,45.5,30.4,85,59,22,29.54,29.29,10,4,18,0.51
2013-4-13,74.1,58.0,45.5,38.6,33.2,20.6,69,45,14,29.67,29.53,10,3,17,0.00
2013-4-14,67.5,51.3,36.3,47.0,39.4,31.1,86,66,34,29.69,29.58,7,2,12,0.04
2013-4-15,77.0,60.9,51.6,54.9,50.9,46.8,88,71,45,29.80,29.56,7,2,11,0.09
2013-4-16,80.2,66.5,55.4,57.4,53.9,49.3,83,66,44,29.88,29.78,8,2,14,0.00
2013-4-17,81.3,64.3,57.4,61.9,55.9,51.8,86,75,44,29.85,29.73,5,1,7,0.32
2013-4-18,77.2,66.1,59.0,57.4,55.6,53.3,88,70,47,29.74,29.57,8,3,13,0.01
2013-4-19,67.1,59.7,43.2,60.0,51.0,31.8,85,73,40,29.60,29.37,9,4,21,1.00
2013-4-20,63.9,48.1,36.5,32.9,26.2,18.0,76,46,20,29.85,29.59,9,4,14,0.00
2013-4-21,68.0,48.6,31.1,39.0,30.9,25.3,86,56,24,29.95,29.85,6,2,11,0.00
2013-4-22,72.0,52.2,35.1,40.6,36.0,30.1,87,58,27,29.94,29.76,7,2,10,0.00
2013-4-23,74.7,54.8,33.8,43.6,36.8,28.6,85,55,25,29.84,29.69,6,2,11,0.00
2013-4-24,69.3,56.9,44.6,56.0,48.2,39.8,86,74,53,29.74,29.65,9,2,16,0.13
2013-4-25,72.0,54.6,40.6,48.4,33.1,19.0,83,53,15,29.92,29.71,6,3,11,0.00
2013-4-26,74.3,52.7,31.5,43.4,32.0,26.3,85,51,20,29.97,29.88,7,2,11,0.00
2013-4-27,57.0,51.3,48.9,49.7,45.5,42.2,88,81,59,29.96,29.80,4,1,5,0.45
2013-4-28,54.5,52.1,49.3,50.7,48.3,45.9,88,87,85,29.81,29.61,4,1,6,1.38
2013-4-29,76.5,61.0,51.8,54.6,50.5,47.0,89,71,41,29.65,29.54,5,2,8,0.02
2013-4-30,79.0,60.7,44.4,54.4,48.9,41.3,90,68,39,29.76,29.60,6,2,10,0.00
2013-5-1,73.6,63.0,52.0,53.1,49.4,46.2,85,63,42,29.84,29.75,6,2,10,0.00
2013-5-2,71.1,61.0,56.3,53.3,50.0,47.4,79,67,52,29.85,29.77,6,2,8,0.00
2013-5-3,63.5,57.9,53.2,50.9,48.8,46.2,83,72,54,29.80,29.65,5,2,9,0.04
2013-5-4,55.6,52.6,48.7,47.7,45.1,39.4,85,76,62,29.65,29.50,5,3,10,0.80
2013-5-5,56.1,52.8,51.3,51.0,47.7,46.2,86,83,75,29.53,29.39,6,2,11,0.70
2013-5-6,59.7,50.2,43.5,47.2,43.1,39.9,88,77,56,29.53,29.38,6,2,8,0.18
2013-5-7,72.0,54.3,42.6,45.7,41.8,35.0,89,67,29,29.58,29.47,6,2,8,0.00
2013-5-8,67.3,56.2,44.1,53.3,47.4,39.8,87,73,55,29.69,29.55,5,1,9,0.01
2013-5-9,76.8,60.5,50.4,58.0,51.2,46.3,88,73,45,29.75,29.66,4,1,7,0.04
2013-5-10,59.2,50.8,47.7,54.5,46.6,44.0,88,86,82,29.75,29.69,2,0,3,0.00